When you browse on this site, cookies collect data to enhance your experience and personalize the content and advertising you see.
Visit our Privacy Policy to learn more. By continuing to use the site, you agree to this use of cookies and data.
  • In Czech Republic
  • List of Countries
  • For 7 days
  • Water Temperature
  • Satellite Maps
  • Weather Map
  • Weather Widgets
  • user-avatar
    Login

    Hourly Weather Milford Mill

    Today, 18 February, Monday

    Time Temperature Precipitation Wind Pressure Humidity
    00:00 +1°C° 2 mm 3 mps 745 mmHg 92%
    01:00 -1°C° 0 mm 4 mps 744 mmHg 91%
    02:00 0°C° 0.9 mm 3 mps 744 mmHg 92%
    03:00 +1°C° 0.9 mm 3 mps 743 mmHg 92%
    04:00 +1°C° 0.9 mm 3 mps 743 mmHg 93%
    05:00 +1°C° 0.1 mm 3 mps 743 mmHg 92%
    06:00 +2°C° 0.1 mm 3 mps 743 mmHg 91%
    07:00 +1°C° 0 mm 0 mps 743 mmHg 94%
    08:00 +1°C° 0 mm 3 mps 744 mmHg 83%
    09:00 +1°C° 0 mm 5 mps 745 mmHg 73%
    10:00 +3°C° 0 mm 7 mps 746 mmHg 63%
    11:00 +2°C° 0 mm 8 mps 747 mmHg 60%
    12:00 +2°C° 0 mm 8 mps 747 mmHg 57%
    13:00 +4°C° 0 mm 8 mps 748 mmHg 55%
    14:00 +2°C° 0 mm 8 mps 749 mmHg 55%
    15:00 +3°C° 0 mm 7 mps 749 mmHg 55%
    16:00 +2°C° 0 mm 7 mps 750 mmHg 55%
    17:00 0°C° 0 mm 7 mps 751 mmHg 58%
    18:00 -1°C° 0 mm 6 mps 752 mmHg 61%
    19:00 -1°C° 0 mm 5 mps 753 mmHg 63%
    20:00 -1°C° 0 mm 5 mps 754 mmHg 63%
    21:00 -2°C° 0 mm 5 mps 755 mmHg 63%
    22:00 -4°C° 0 mm 5 mps 756 mmHg 63%
    23:00 -4°C° 0 mm 5 mps 757 mmHg 64%

    Tomorrow, 19 February, Tuesday

    Time Temperature Precipitation Wind Pressure Humidity
    00:00 -5°C° 0 mm 5 mps 757 mmHg 64%
    01:00 -5°C° 0 mm 5 mps 758 mmHg 65%
    02:00 -5°C° 0 mm 4 mps 759 mmHg 64%
    03:00 -5°C° 0 mm 4 mps 759 mmHg 64%
    04:00 -5°C° 0 mm 4 mps 760 mmHg 63%
    05:00 -5°C° 0 mm 4 mps 760 mmHg 63%
    06:00 -6°C° 0 mm 3 mps 761 mmHg 63%
    07:00 -6°C° 0 mm 3 mps 762 mmHg 63%
    08:00 -5°C° 0 mm 3 mps 762 mmHg 57%
    09:00 -4°C° 0 mm 3 mps 762 mmHg 50%
    10:00 -2°C° 0 mm 3 mps 763 mmHg 44%
    11:00 -1°C° 0 mm 3 mps 763 mmHg 40%
    12:00 0°C° 0 mm 3 mps 763 mmHg 36%
    13:00 +1°C° 0 mm 3 mps 763 mmHg 32%
    14:00 +1°C° 0 mm 3 mps 762 mmHg 33%
    15:00 +2°C° 0 mm 3 mps 762 mmHg 34%
    16:00 +2°C° 0 mm 3 mps 762 mmHg 34%
    17:00 +2°C° 0 mm 2 mps 762 mmHg 38%
    18:00 +2°C° 0 mm 1 mps 763 mmHg 41%
    19:00 +1°C° 0 mm 1 mps 763 mmHg 45%
    20:00 +1°C° 0 mm 1 mps 763 mmHg 45%
    21:00 +1°C° 0 mm 1 mps 763 mmHg 46%
    22:00 +1°C° 0 mm 1 mps 763 mmHg 46%
    23:00 +1°C° 0 mm 1 mps 763 mmHg 46%

    Day after tomorrow, 20 February, Wednesday

    Time Temperature Precipitation Wind Pressure Humidity
    00:00 +1°C° 0 mm 1 mps 763 mmHg 47%
    01:00 +1°C° 0 mm 1 mps 763 mmHg 47%
    02:00 +1°C° 0 mm 1 mps 762 mmHg 47%
    03:00 +1°C° 0 mm 1 mps 762 mmHg 48%
    04:00 +1°C° 0 mm 1 mps 761 mmHg 48%
    05:00 -2°C° 0.2 mm 2 mps 761 mmHg 56%
    06:00 -2°C° 0.2 mm 2 mps 762 mmHg 63%
    07:00 -3°C° 0.2 mm 2 mps 762 mmHg 71%
    08:00 -4°C° 1.2 mm 3 mps 762 mmHg 79%
    09:00 -4°C° 1.2 mm 3 mps 762 mmHg 86%
    10:00 -5°C° 1.2 mm 3 mps 762 mmHg 94%
    11:00 -4°C° 1.4 mm 3 mps 761 mmHg 94%
    12:00 -4°C° 1.4 mm 4 mps 760 mmHg 95%
    13:00 -4°C° 1.4 mm 4 mps 760 mmHg 95%
    14:00 -3°C° 1.7 mm 4 mps 759 mmHg 96%
    15:00 -3°C° 1.7 mm 4 mps 758 mmHg 97%
    16:00 -3°C° 1.7 mm 4 mps 757 mmHg 97%
    17:00 -2°C° 2.2 mm 4 mps 757 mmHg 98%
    18:00 -1°C° 2.2 mm 3 mps 756 mmHg 98%
    19:00 -1°C° 2.2 mm 3 mps 756 mmHg 99%
    20:00 0°C° 1.1 mm 3 mps 755 mmHg 99%
    21:00 0°C° 1.1 mm 3 mps 754 mmHg 99%
    22:00 0°C° 1.1 mm 3 mps 753 mmHg 99%
    23:00 0°C° 0.6 mm 3 mps 751 mmHg 99%

    21 February, Thursday

    Time Temperature Precipitation Wind Pressure Humidity
    00:00 +1°C° 0.6 mm 3 mps 750 mmHg 99%
    01:00 +1°C° 0.6 mm 3 mps 749 mmHg 99%
    02:00 +1°C° 0.3 mm 3 mps 748 mmHg 99%
    03:00 +1°C° 0.3 mm 3 mps 747 mmHg 99%
    04:00 +2°C° 0.3 mm 3 mps 746 mmHg 99%
    05:00 +2°C° 0.1 mm 3 mps 746 mmHg 99%
    06:00 +2°C° 0.1 mm 3 mps 746 mmHg 99%
    07:00 +2°C° 0.1 mm 3 mps 746 mmHg 99%
    08:00 +3°C° 0 mm 3 mps 746 mmHg 99%
    09:00 +3°C° 0 mm 4 mps 746 mmHg 99%
    10:00 +4°C° 0 mm 4 mps 747 mmHg 99%
    11:00 +5°C° 0 mm 5 mps 747 mmHg 91%
    12:00 +5°C° 0 mm 6 mps 748 mmHg 83%
    13:00 +7°C° 0 mm 6 mps 748 mmHg 75%
    14:00 +7°C° 0 mm 6 mps 748 mmHg 73%
    15:00 +7°C° 0 mm 6 mps 748 mmHg 72%
    16:00 +7°C° 0 mm 5 mps 749 mmHg 71%
    17:00 +6°C° 0 mm 5 mps 750 mmHg 74%
    18:00 +3°C° 0 mm 5 mps 750 mmHg 77%
    19:00 +3°C° 0 mm 4 mps 751 mmHg 79%
    20:00 +3°C° 0 mm 4 mps 752 mmHg 79%
    21:00 +1°C° 0 mm 5 mps 752 mmHg 78%
    22:00 +1°C° 0 mm 5 mps 753 mmHg 77%
    23:00 +1°C° 0 mm 4 mps 754 mmHg 78%

    22 February, Friday

    Time Temperature Precipitation Wind Pressure Humidity
    00:00 +1°C° 0 mm 4 mps 754 mmHg 79%
    01:00 +1°C° 0 mm 3 mps 755 mmHg 79%
    02:00 +1°C° 0 mm 3 mps 755 mmHg 79%
    03:00 +1°C° 0 mm 3 mps 755 mmHg 80%
    04:00 +1°C° 0 mm 3 mps 755 mmHg 80%
    05:00 +1°C° 0 mm 2 mps 755 mmHg 80%
    06:00 +1°C° 0 mm 2 mps 756 mmHg 80%
    07:00 +1°C° 0 mm 2 mps 756 mmHg 81%
    08:00 +2°C° 0 mm 2 mps 757 mmHg 75%
    09:00 +3°C° 0 mm 2 mps 757 mmHg 70%
    10:00 +4°C° 0 mm 2 mps 758 mmHg 64%
    11:00 +5°C° 0 mm 2 mps 758 mmHg 61%
    12:00 +6°C° 0 mm 2 mps 758 mmHg 57%
    13:00 +7°C° 0 mm 2 mps 757 mmHg 54%
    14:00 +7°C° 0 mm 2 mps 757 mmHg 55%
    15:00 +8°C° 0 mm 1 mps 757 mmHg 56%
    16:00 +9°C° 0 mm 1 mps 757 mmHg 57%
    17:00 +8°C° 0 mm 1 mps 757 mmHg 62%
    18:00 +7°C° 0 mm 1 mps 758 mmHg 66%
    19:00 +6°C° 0 mm 1 mps 758 mmHg 71%
    20:00 +5°C° 0 mm 1 mps 759 mmHg 72%
    21:00 +4°C° 0 mm 0 mps 759 mmHg 74%
    22:00 +4°C° 0 mm 0 mps 759 mmHg 75%
    23:00 +3°C° 0 mm 0 mps 758 mmHg 76%

    23 February, Saturday

    Time Temperature Precipitation Wind Pressure Humidity
    00:00 +3°C° 0 mm 0 mps 758 mmHg 76%
    01:00 +3°C° 0 mm 0 mps 758 mmHg 77%
    02:00 +3°C° 0 mm 0 mps 758 mmHg 78%
    03:00 +3°C° 0 mm 0 mps 757 mmHg 79%
    04:00 +3°C° 0 mm 1 mps 757 mmHg 79%
    05:00 +3°C° 0 mm 1 mps 757 mmHg 81%
    06:00 +3°C° 0 mm 1 mps 757 mmHg 83%
    07:00 +3°C° 0 mm 1 mps 757 mmHg 85%
    08:00 +3°C° 0 mm 2 mps 757 mmHg 81%
    09:00 +3°C° 0 mm 3 mps 757 mmHg 76%
    10:00 +5°C° 0 mm 3 mps 757 mmHg 72%
    11:00 +7°C° 0 mm 3 mps 756 mmHg 67%
    12:00 +7°C° 0 mm 4 mps 755 mmHg 62%
    13:00 +8°C° 0 mm 4 mps 755 mmHg 57%
    14:00 +8°C° 0 mm 4 mps 754 mmHg 61%
    15:00 +7°C° 0 mm 4 mps 753 mmHg 66%
    16:00 +7°C° 0 mm 4 mps 753 mmHg 70%
    17:00 +6°C° 0 mm 4 mps 753 mmHg 76%
    18:00 +5°C° 0 mm 3 mps 752 mmHg 82%
    19:00 +5°C° 0 mm 3 mps 752 mmHg 88%
    20:00 +5°C° 0 mm 3 mps 751 mmHg 90%
    21:00 +6°C° 0 mm 2 mps 751 mmHg 91%
    22:00 +6°C° 0 mm 2 mps 751 mmHg 93%
    23:00 +6°C° 0.1 mm 2 mps 750 mmHg 94%
    Show more